sat.trackr.live / text

‹ back to catalog

ONEWEB-0367

NORAD 49293 · 2021-090Q

PAYLOAD ACTIVE UNKNOWN

§ Identity

Operator
Country
UK
Launch date
2021-10-14
Launch site
VOSTO
Launch vehicle
Mass (kg)
RCS (m²)

Purposes: comms

External: N2YO · Heavens-Above · Gunter

§ Orbital elements

Epoch: 2026-05-24T21:44:24.713376Z

Period
109.03 min
Inclination
87.9178°
Eccentricity
0.0001723
Mean motion
13.20771554 rev/d
Perigee alt
1,180.5 km
Apogee alt
1,183.1 km
Semi-major
7,559.9 km
B*
-2.1826e-4
RAAN
279.0818°
Arg perigee
102.0099°
Mean anomaly
258.1228°
Rev number
22,675

§ Raw data

ONEWEB-03671 49293U 21090Q   26144.90584159 -.00000076  00000+0 -21826-3 0  99932 49293  87.9178 279.0818 0001723 102.0099 258.1228 13.20771554226753

JSON: /api/v1/satellites/49293 · /tle

For live sub-satellite position, see the globe view (requires WebGL).

§ Visibility from observer

Set your observer location to see the next 7 days of passes ≥ 10°. The values pass through the URL so the page stays shareable.

No JS? Fill the form by hand. The geolocation button needs JavaScript.